[[{"header":{"parameterUnit":"m.s-1","parameterCategory":1,"la1":30.2991,"la2":30.254,"lo1":-89.0895,"lo2":-89.0444,"dy":0.0017,"dx":0.0017,"nx":28,"ny":28,"refTime":"2025-04-10T03:00:00:Z","depth":0,"parameterNumber":2,"parameterNumberName":"U-component_of_WINDS"},"data":[0,0,0,0,0,0,0,0,0,0,0,0,0,0,0,0,0,0,0,0,0,0,0,0,0,0,0,0,0,0,0,0,0,0,0,0,0,0,0,0,0,0,0,0,0,0,0,0,0,0,0,0,0,0,0,0,0,0,5.2941,5.2943,0,5.3152,5.3155,5.3157,5.3099,5.3094,5.309,5.3086,5.3309,5.3319,5.3329,0,0,0,0,0,0,0,0,0,0,0,0,0,5.2493,5.2501,5.2941,5.2943,5.2946,5.3152,5.3155,5.3158,5.3099,5.3094,5.3089,5.3084,5.3306,5.3318,5.333,0,0,0,0,0,0,0,0,0,0,0,0,0,5.2694,5.2504,5.294,5.2942,5.2944,5.3151,5.3155,5.3158,5.31,5.3094,5.3087,5.3081,5.3302,5.3316,5.3331,5.3552,0,0,5.3377,5.3383,0,0,0,0,0,0,0,0,5.2683,5.2711,5.2939,5.2942,5.2945,5.3092,5.3078,5.3291,5.3102,5.3041,5.3086,5.3078,5.3243,5.3262,5.3316,5.3563,5.3572,5.3378,5.3387,5.3394,5.3398,0,0,0,0,0,0,0,5.2669,5.2701,5.3025,5.2942,5.2946,5.2934,5.2955,5.3118,5.3176,5.3046,5.3042,5.3068,5.3243,5.3302,5.3321,5.3575,5.3378,5.3391,5.34,5.3406,5.4014,5.4021,0,0,0,0,0,0,5.2652,5.269,5.3018,5.3031,5.2795,5.2947,5.2971,5.3052,5.3174,5.3186,5.3073,5.3064,5.3279,5.3303,5.3328,5.3595,5.3393,5.3407,5.3416,5.4007,5.4015,5.4023,0,0,0,0,0,0,5.2643,5.2682,5.3009,5.286,5.29,5.2961,5.3053,5.3059,5.3118,5.3194,5.3204,5.3122,5.3275,5.3307,5.3496,5.3602,5.3414,5.3428,5.3998,5.4009,5.4019,5.4131,0,0,0,0,0,0,5.263,5.2679,5.2762,5.2862,5.2908,5.3173,5.3059,5.3068,5.3143,5.3133,5.3243,5.3255,5.3273,5.3474,5.3511,5.3619,5.3439,5.3989,5.4003,5.4016,5.4118,5.4144,5.4166,0,0,0,0,0,5.2614,5.2787,5.2767,5.2807,5.3014,5.3179,5.3206,5.3221,5.3151,5.3237,5.3285,5.3251,5.3584,5.3494,5.3535,5.365,5.3983,5.3999,5.4015,5.4107,5.4139,5.4166,0,0,0,0,0,0,5.2701,5.28,5.2779,5.2988,5.3075,5.3168,5.3276,5.3254,5.3364,5.3351,5.3367,5.3392,5.3586,5.3636,5.3534,5.387,5.3774,5.3799,5.383,5.3861,5.3884,5.3869,5.3452,0,0,0,0,0,5.2744,5.2867,5.2948,5.3125,5.317,5.3216,5.3288,5.3292,5.3384,5.3421,5.3483,5.3576,5.3701,5.3783,5.3903,5.4124,5.4148,5.4223,5.4247,5.4267,5.4289,5.441,5.4445,5.4077,5.4076,5.4076,0,0,5.2835,5.2904,5.2982,5.3144,5.3212,5.3342,5.3247,5.3388,5.3485,5.3443,5.3625,5.3674,5.3778,5.3984,5.4078,5.4032,5.4395,5.4287,5.4302,5.4314,5.443,5.4465,5.4496,5.4088,5.4086,5.4084,0,0,5.3067,5.3131,5.3286,5.3355,5.3458,5.3487,5.3524,5.3621,5.3651,5.3833,5.3804,5.392,5.4135,5.421,5.4277,5.4536,5.4509,5.4574,5.4702,5.482,5.4849,5.4874,5.4968,5.5001,5.4596,5.4596,5.4596,0,5.3168,5.336,5.3369,5.3512,5.3585,5.355,5.3707,5.3775,5.3913,5.3964,5.391,5.4179,5.4246,5.447,5.4532,5.4587,5.4631,5.4563,5.4843,5.4869,5.4894,5.4983,5.5018,5.4603,5.4603,5.4602,5.4601,0,5.348,5.3613,5.3726,5.3857,5.3942,5.4092,5.4125,5.4211,5.4207,5.4242,5.4428,5.4507,5.4642,5.4695,5.4694,5.4919,5.4887,5.4838,5.4742,5.4936,5.502,5.5054,5.4614,5.4611,5.4609,5.4607,0,0,5.3775,5.3906,5.3948,5.4007,5.4117,5.4221,5.437,5.4499,5.4572,5.4668,5.4794,5.4976,5.4931,5.5007,5.5013,5.5116,5.5317,5.5055,5.5058,5.5102,5.5571,5.5608,5.5647,5.5299,5.5305,5.5311,5.5562,0,5.4017,5.4276,5.4288,5.4524,5.4648,5.4616,5.4745,5.4827,5.4864,5.4976,5.5017,5.5146,5.5076,5.5122,5.5222,5.5271,5.5412,5.5253,5.5418,5.5424,5.5394,5.5691,5.5731,5.5964,5.5595,5.5601,5.5605,0,5.4335,5.4438,5.4686,5.4777,5.483,5.4946,5.5065,5.5172,5.5265,5.5284,5.5367,5.5358,5.5512,5.5409,5.5622,5.5514,5.5582,5.5616,5.5625,5.5643,5.5527,5.5717,5.6039,5.6075,5.5656,5.5652,5.5648,0,5.4527,5.4727,5.4901,5.4953,5.5063,5.5146,5.5196,5.5282,5.5359,5.5463,5.5513,5.5635,5.5703,5.5798,5.5823,5.5746,5.6036,5.5935,5.6058,5.6058,5.6122,5.6118,5.6461,5.6164,5.6164,5.6163,5.6162,0,5.4797,5.4951,5.4989,5.5096,5.5267,5.5279,5.5449,5.5494,5.5571,5.5688,5.5667,5.5778,5.5803,5.5919,5.594,5.6113,5.6144,5.6165,5.6169,5.6168,5.6165,5.6214,5.6199,5.6172,5.617,5.6168,5.6167,0,5.5041,5.5072,5.526,5.5348,5.5374,5.5497,5.5573,5.5677,5.5709,5.5858,5.5893,5.5946,5.6082,5.6115,5.6277,5.6291,5.6496,5.6484,5.6464,5.6464,5.6585,5.6574,5.6973,5.7026,5.6693,5.6696,5.6699,0,5.5213,5.5329,5.5429,5.5504,5.5558,5.568,5.5757,5.5773,5.5855,5.5969,5.6059,5.6191,5.6298,5.6516,5.657,5.6694,5.6686,5.6817,5.6705,5.67,5.6689,5.6682,5.6694,5.6839,5.6843,5.6845,5.6848,0,5.5514,5.5523,5.5633,5.575,5.5842,5.5935,5.6024,5.6088,5.6116,5.621,5.6346,5.6429,5.6592,5.6725,5.6849,5.6903,5.6882,5.6882,5.6917,5.6918,5.6902,5.6913,5.6524,5.6874,5.6871,5.6869,5.6868,5.6867,5.5728,5.583,5.5915,5.6039,5.6107,5.619,5.6292,5.6336,5.6449,5.6582,5.6585,5.6734,5.6824,5.6988,5.7049,5.7167,5.7127,5.7178,5.7191,5.7204,5.7215,5.6882,5.719,5.7189,5.7188,5.7188,5.7187,0,5.6028,5.6081,5.6195,5.6318,5.6416,5.6383,5.648,5.6565,5.6695,5.6779,5.6884,5.7041,5.7168,5.7231,5.7358,5.7441,5.7434,5.7474,5.7468,5.7481,5.7243,5.72,5.7477,5.7477,5.7477,5.7476,5.7476,5.7476,5.6197,5.6367,5.6386,5.6591,5.6643,5.6787,5.6845,5.6922,5.6989,5.7164,5.7269,5.7308,5.7384,5.7516,5.7632,5.7647,5.7695,5.774,5.7751,5.7528,5.7498,5.747,5.743,5.775,5.7751,5.798,5.7982,5.7983]},{"header":{"parameterUnit":"m.s-1","parameterCategory":1,"la1":30.2991,"la2":30.254,"lo1":-89.0895,"lo2":-89.0444,"dy":0.0017,"dx":0.0017,"nx":28,"ny":28,"refTime":"2025-04-10T03:00:00:Z","depth":0,"parameterNumber":3,"parameterNumberName":"V-component_of_WINDS"},"data":[0,0,0,0,0,0,0,0,0,0,0,0,0,0,0,0,0,0,0,0,0,0,0,0,0,0,0,0,0,0,0,0,0,0,0,0,0,0,0,0,0,0,0,0,0,0,0,0,0,0,0,0,0,0,0,0,0,0,-0.4253,-0.4253,0,-0.4304,-0.4304,-0.4305,-0.4313,-0.4313,-0.4313,-0.4312,-0.4366,-0.4368,-0.437,0,0,0,0,0,0,0,0,0,0,0,0,0,-0.4165,-0.4167,-0.4253,-0.4253,-0.4254,-0.4303,-0.4304,-0.4305,-0.4314,-0.4313,-0.4313,-0.4312,-0.4365,-0.4368,-0.437,0,0,0,0,0,0,0,0,0,0,0,0,0,-0.4209,-0.4168,-0.4253,-0.4264,-0.4266,-0.4303,-0.4304,-0.4305,-0.4314,-0.4313,-0.4312,-0.4312,-0.4365,-0.4367,-0.437,-0.44,0,0,-0.4379,-0.438,0,0,0,0,0,0,0,0,-0.4206,-0.4212,-0.4262,-0.4263,-0.4265,-0.4301,-0.4293,-0.4337,-0.4314,-0.4296,-0.4312,-0.4311,-0.4345,-0.435,-0.4361,-0.4403,-0.4405,-0.4379,-0.438,-0.4382,-0.4382,0,0,0,0,0,0,0,-0.4203,-0.421,-0.4273,-0.4263,-0.4265,-0.4268,-0.4273,-0.4301,-0.4323,-0.4297,-0.4298,-0.4304,-0.4346,-0.4358,-0.4362,-0.4406,-0.4379,-0.4381,-0.4383,-0.4384,-0.4476,-0.4477,0,0,0,0,0,0,-0.4198,-0.4207,-0.4271,-0.4274,-0.4233,-0.427,-0.4276,-0.4291,-0.4323,-0.4327,-0.4304,-0.4304,-0.4353,-0.4359,-0.4364,-0.4402,-0.4382,-0.4384,-0.4386,-0.4476,-0.4477,-0.4477,0,0,0,0,0,0,-0.4196,-0.4203,-0.4269,-0.4241,-0.425,-0.4272,-0.4288,-0.4292,-0.4304,-0.4328,-0.4333,-0.4312,-0.4353,-0.436,-0.4391,-0.4404,-0.4385,-0.4388,-0.4475,-0.4476,-0.4477,-0.4477,0,0,0,0,0,0,-0.4193,-0.4203,-0.4214,-0.4241,-0.4251,-0.4295,-0.4289,-0.4293,-0.4308,-0.4308,-0.4337,-0.4341,-0.4353,-0.4387,-0.4394,-0.4407,-0.439,-0.4474,-0.4475,-0.4477,-0.4476,-0.4478,-0.448,0,0,0,0,0,-0.419,-0.4212,-0.4214,-0.4222,-0.4265,-0.4296,-0.4301,-0.4314,-0.4309,-0.4321,-0.4337,-0.434,-0.4401,-0.439,-0.4398,-0.4412,-0.4473,-0.4475,-0.4477,-0.4476,-0.4478,-0.448,0,0,0,0,0,0,-0.4186,-0.4216,-0.4218,-0.425,-0.427,-0.4297,-0.4312,-0.4316,-0.4339,-0.4338,-0.4354,-0.436,-0.4391,-0.4405,-0.4392,-0.4444,-0.4437,-0.444,-0.4433,-0.4436,-0.4438,-0.4434,-0.4392,0,0,0,0,0,-0.4188,-0.421,-0.4235,-0.426,-0.427,-0.4289,-0.4303,-0.4311,-0.4333,-0.4342,-0.436,-0.4382,-0.4407,-0.4422,-0.4446,-0.4479,-0.4486,-0.4492,-0.4494,-0.4496,-0.4499,-0.4518,-0.4522,-0.4483,-0.4483,-0.4483,0,0,-0.4194,-0.4213,-0.4226,-0.426,-0.4277,-0.4299,-0.4297,-0.4321,-0.4338,-0.4346,-0.4377,-0.4391,-0.4416,-0.4449,-0.4464,-0.4461,-0.4511,-0.4498,-0.4499,-0.4501,-0.452,-0.4524,-0.4527,-0.4485,-0.4484,-0.4484,0,0,-0.4216,-0.4232,-0.4255,-0.4272,-0.4297,-0.431,-0.4316,-0.4342,-0.4352,-0.4383,-0.439,-0.4411,-0.4452,-0.447,-0.4485,-0.4515,-0.4519,-0.4522,-0.4532,-0.4551,-0.4554,-0.4557,-0.4568,-0.4572,-0.4525,-0.4525,-0.4525,0,-0.422,-0.4254,-0.4266,-0.429,-0.4306,-0.4314,-0.4338,-0.4354,-0.4386,-0.4396,-0.4393,-0.4445,-0.4463,-0.45,-0.4507,-0.4519,-0.4526,-0.4519,-0.4552,-0.4555,-0.4558,-0.4569,-0.4573,-0.4525,-0.4525,-0.4525,-0.4525,0,-0.4258,-0.4281,-0.4297,-0.4327,-0.4344,-0.4368,-0.4385,-0.4401,-0.4408,-0.4422,-0.4454,-0.4475,-0.4504,-0.4513,-0.452,-0.4552,-0.455,-0.4549,-0.4542,-0.4562,-0.4572,-0.4577,-0.4525,-0.4525,-0.4525,-0.4525,0,0,-0.4278,-0.4315,-0.4321,-0.4335,-0.4364,-0.4383,-0.4407,-0.4435,-0.4448,-0.4471,-0.4492,-0.4527,-0.4527,-0.4544,-0.4553,-0.457,-0.4593,-0.4567,-0.4568,-0.4572,-0.463,-0.4631,-0.4635,-0.4596,-0.4597,-0.4598,-0.4628,0,-0.4303,-0.4347,-0.4359,-0.4396,-0.4419,-0.4427,-0.4449,-0.447,-0.4483,-0.4505,-0.452,-0.4545,-0.4543,-0.4553,-0.457,-0.4587,-0.4605,-0.4585,-0.4617,-0.4618,-0.4611,-0.4641,-0.4641,-0.4669,-0.4633,-0.4633,-0.4634,0,-0.4339,-0.4361,-0.44,-0.4427,-0.4437,-0.4456,-0.4483,-0.4503,-0.4527,-0.4536,-0.4555,-0.4563,-0.4591,-0.4583,-0.4621,-0.4607,-0.4621,-0.4632,-0.4633,-0.4637,-0.4627,-0.4646,-0.4678,-0.4683,-0.464,-0.464,-0.4639,0,-0.435,-0.439,-0.4419,-0.4431,-0.4462,-0.4476,-0.449,-0.4513,-0.4529,-0.4553,-0.4564,-0.4591,-0.4605,-0.4626,-0.4642,-0.4635,-0.468,-0.4673,-0.4689,-0.4688,-0.4698,-0.4697,-0.4733,-0.4706,-0.4706,-0.4706,-0.4706,0,-0.4378,-0.4401,-0.4424,-0.4442,-0.4469,-0.4484,-0.4511,-0.4526,-0.4547,-0.4568,-0.4578,-0.4598,-0.4617,-0.464,-0.4653,-0.4683,-0.469,-0.4699,-0.4702,-0.4698,-0.4697,-0.4708,-0.4706,-0.4707,-0.4707,-0.4707,-0.4707,0,-0.4395,-0.4411,-0.4443,-0.4471,-0.4478,-0.4497,-0.4521,-0.454,-0.4554,-0.4581,-0.4588,-0.461,-0.4638,-0.4656,-0.4691,-0.47,-0.4734,-0.4736,-0.4725,-0.4727,-0.4742,-0.4741,-0.4787,-0.4794,-0.4762,-0.4762,-0.4762,0,-0.4411,-0.443,-0.4459,-0.4474,-0.4488,-0.4512,-0.4528,-0.4544,-0.4561,-0.459,-0.4605,-0.4633,-0.4657,-0.4701,-0.4721,-0.4749,-0.4752,-0.4767,-0.4757,-0.4753,-0.4753,-0.4752,-0.4755,-0.4768,-0.4769,-0.4769,-0.4769,0,-0.4439,-0.4447,-0.4469,-0.4495,-0.4515,-0.4536,-0.4557,-0.4569,-0.4589,-0.4608,-0.4636,-0.4654,-0.469,-0.4719,-0.4748,-0.4764,-0.477,-0.4772,-0.4777,-0.4774,-0.4767,-0.4772,-0.473,-0.4771,-0.4771,-0.4771,-0.4771,-0.477,-0.4457,-0.4474,-0.4498,-0.4523,-0.4541,-0.4561,-0.458,-0.4596,-0.462,-0.465,-0.4658,-0.4688,-0.4713,-0.4753,-0.477,-0.4794,-0.4792,-0.48,-0.4802,-0.4803,-0.4804,-0.4763,-0.4799,-0.4799,-0.4799,-0.4799,-0.4799,0,-0.4486,-0.4502,-0.4525,-0.4555,-0.4575,-0.4578,-0.4603,-0.462,-0.4646,-0.4668,-0.4691,-0.4724,-0.4752,-0.4774,-0.4803,-0.4819,-0.4822,-0.4826,-0.4825,-0.4829,-0.4803,-0.4796,-0.4822,-0.4822,-0.4822,-0.4822,-0.4822,-0.4822,-0.4504,-0.4533,-0.4543,-0.4582,-0.4598,-0.4627,-0.464,-0.4659,-0.4677,-0.4714,-0.4736,-0.4751,-0.4774,-0.4804,-0.4831,-0.4837,-0.4847,-0.485,-0.4857,-0.4833,-0.483,-0.4828,-0.4821,-0.4852,-0.4852,-0.4881,-0.4881,-0.4881]}]]